Time,TemperatureF,DewpointF,PressureIn,WindDirection,WindDirectionDegrees,WindSpeedMPH,WindSpeedGustMPH,Humidity,HourlyPrecipIn,Conditions,Clouds,dailyrainin,SoftwareType,DateUTC
2013-11-08 00:00:00,34.6,30.6,30.10,WNW,300,4.0,8.0,85,0.00,,OVC049,0.00,VWS V13.01,2013-11-08 05:00:00,
2013-11-08 00:01:00,34.6,30.6,30.10,West,266,4.0,5.0,85,0.00,,OVC055,0.00,VWS V13.01,2013-11-08 05:01:00,
2013-11-08 00:03:00,34.6,30.9,30.10,West,275,6.0,8.0,86,0.00,,OVC055,0.00,VWS V13.01,2013-11-08 05:03:00,
2013-11-08 00:08:00,34.6,30.9,30.10,West,281,3.0,6.0,86,0.00,,OVC055,0.00,VWS V13.01,2013-11-08 05:08:00,
2013-11-08 00:13:00,34.5,30.8,30.10,West,281,3.0,6.0,86,0.00,,OVC055,0.00,VWS V13.01,2013-11-08 05:13:00,
2013-11-08 00:18:00,34.4,30.6,30.10,West,272,2.0,5.0,86,0.00,,OVC055,0.00,VWS V13.01,2013-11-08 05:18:00,
2013-11-08 00:23:00,34.4,30.6,30.11,West,279,4.0,6.0,86,0.00,,OVC055,0.00,VWS V13.01,2013-11-08 05:23:00,
2013-11-08 00:28:00,34.4,30.6,30.11,WNW,298,4.0,6.0,86,0.00,,OVC055,0.00,VWS V13.01,2013-11-08 05:28:00,
2013-11-08 00:33:00,34.3,30.8,30.11,WNW,286,3.0,8.0,87,0.00,,OVC055,0.00,VWS V13.01,2013-11-08 05:33:00,
2013-11-08 00:38:00,34.3,30.8,30.11,NW,323,3.0,6.0,87,0.00,,OVC055,0.00,VWS V13.01,2013-11-08 05:38:00,
2013-11-08 00:43:00,34.3,30.8,30.11,West,273,1.0,6.0,87,0.00,,OVC055,0.00,VWS V13.01,2013-11-08 05:43:00,
2013-11-08 00:48:00,34.3,30.8,30.11,West,259,2.0,7.0,87,0.00,,OVC055,0.00,VWS V13.01,2013-11-08 05:48:00,
2013-11-08 00:53:00,34.2,30.7,30.11,NW,325,4.0,4.0,87,0.00,,OVC055,0.00,VWS V13.01,2013-11-08 05:53:00,
2013-11-08 00:58:00,34.1,30.6,30.11,WNW,294,4.0,5.0,87,0.00,,OVC055,0.00,VWS V13.01,2013-11-08 05:58:00,
2013-11-08 01:03:00,34.1,30.9,30.11,West,268,4.0,7.0,88,0.00,,BKN060,0.00,VWS V13.01,2013-11-08 06:03:00,
2013-11-08 01:09:00,34.1,31.2,30.11,WSW,241,5.0,6.0,89,0.00,,BKN060,0.00,VWS V13.01,2013-11-08 06:09:00,
2013-11-08 01:13:00,34.1,31.2,30.12,WNW,294,7.0,11.0,89,0.00,,BKN060,0.00,VWS V13.01,2013-11-08 06:13:00,
2013-11-08 01:18:00,33.9,31.0,30.12,WNW,294,2.0,8.0,89,0.00,,BKN060,0.00,VWS V13.01,2013-11-08 06:18:00,
2013-11-08 01:23:00,33.7,31.1,30.12,WNW,294,4.0,6.0,90,0.00,,BKN060,0.00,VWS V13.01,2013-11-08 06:23:00,
2013-11-08 01:28:00,33.5,30.9,30.12,WNW,298,4.0,8.0,90,0.00,,BKN060,0.00,VWS V13.01,2013-11-08 06:28:00,
2013-11-08 01:34:00,33.4,30.8,30.12,WNW,287,4.0,7.0,90,0.00,,BKN060,0.00,VWS V13.01,2013-11-08 06:34:00,
2013-11-08 01:39:00,33.2,30.9,30.12,NW,312,4.0,5.0,91,0.00,,BKN060,0.00,VWS V13.01,2013-11-08 06:39:00,
2013-11-08 01:44:00,33.2,30.9,30.12,West,278,4.0,4.0,91,0.00,,BKN060,0.00,VWS V13.01,2013-11-08 06:44:00,
2013-11-08 01:49:00,33.1,30.8,30.12,WNW,294,3.0,5.0,91,0.00,,BKN060,0.00,VWS V13.01,2013-11-08 06:49:00,
2013-11-08 01:54:00,33.0,30.9,30.12,WNW,296,3.0,5.0,92,0.00,,BKN060,0.00,VWS V13.01,2013-11-08 06:54:00,
2013-11-08 01:59:00,33.0,30.9,30.12,West,259,3.0,6.0,92,0.00,,BKN060,0.00,VWS V13.01,2013-11-08 06:59:00,
2013-11-08 02:04:00,33.1,31.0,30.12,WSW,258,4.0,5.0,92,0.00,,FEW060,0.00,VWS V13.01,2013-11-08 07:04:00,
2013-11-08 02:09:00,33.2,31.1,30.12,WNW,294,1.0,7.0,92,0.00,,FEW060,0.00,VWS V13.01,2013-11-08 07:09:00,
2013-11-08 02:14:00,33.2,31.1,30.13,WNW,297,5.0,8.0,92,0.00,,FEW060,0.00,VWS V13.01,2013-11-08 07:14:00,
2013-11-08 02:19:00,33.2,31.1,30.13,WSW,249,3.0,8.0,92,0.00,,FEW060,0.00,VWS V13.01,2013-11-08 07:19:00,
2013-11-08 02:24:00,33.4,31.3,30.13,WNW,289,5.0,9.0,92,0.00,,FEW060,0.00,VWS V13.01,2013-11-08 07:24:00,
2013-11-08 02:29:00,33.4,31.3,30.13,WNW,286,2.0,8.0,92,0.00,,FEW060,0.00,VWS V13.01,2013-11-08 07:29:00,
2013-11-08 02:34:00,33.4,31.6,30.13,West,279,3.0,9.0,93,0.00,,FEW060,0.00,VWS V13.01,2013-11-08 07:34:00,
2013-11-08 02:39:00,33.5,31.7,30.13,West,261,4.0,7.0,93,0.00,,FEW060,0.00,VWS V13.01,2013-11-08 07:39:00,
2013-11-08 02:44:00,33.5,31.4,30.14,WNW,294,3.0,6.0,92,0.00,,FEW060,0.00,VWS V13.01,2013-11-08 07:44:00,
2013-11-08 02:49:00,33.6,31.8,30.14,WNW,298,3.0,7.0,93,0.00,,FEW060,0.00,VWS V13.01,2013-11-08 07:49:00,
2013-11-08 02:54:00,33.6,31.8,30.14,WNW,283,2.0,6.0,93,0.00,,FEW060,0.00,VWS V13.01,2013-11-08 07:54:00,
2013-11-08 02:59:00,33.6,31.5,30.14,West,269,4.0,7.0,92,0.00,,FEW060,0.00,VWS V13.01,2013-11-08 07:59:00,
2013-11-08 03:04:00,33.5,31.4,30.14,WNW,295,5.0,7.0,92,0.00,,OVC060,0.00,VWS V13.01,2013-11-08 08:04:00,
2013-11-08 03:09:00,33.6,31.5,30.14,West,271,1.0,6.0,92,0.00,,OVC060,0.00,VWS V13.01,2013-11-08 08:09:00,
2013-11-08 03:14:00,33.6,31.5,30.14,WNW,301,5.0,6.0,92,0.00,,OVC060,0.00,VWS V13.01,2013-11-08 08:14:00,
2013-11-08 03:19:00,33.5,31.4,30.14,WNW,288,5.0,6.0,92,0.00,,OVC060,0.00,VWS V13.01,2013-11-08 08:19:00,
2013-11-08 03:24:00,33.5,31.4,30.14,WNW,289,4.0,8.0,92,0.00,,OVC060,0.00,VWS V13.01,2013-11-08 08:24:00,
2013-11-08 03:29:00,33.4,31.3,30.14,WNW,287,3.0,6.0,92,0.00,,OVC060,0.00,VWS V13.01,2013-11-08 08:29:00,
2013-11-08 03:34:00,33.3,31.2,30.14,WNW,299,3.0,8.0,92,0.00,,OVC060,0.00,VWS V13.01,2013-11-08 08:34:00,
2013-11-08 03:39:00,33.2,31.4,30.15,WNW,289,3.0,6.0,93,0.00,,OVC060,0.00,VWS V13.01,2013-11-08 08:39:00,
2013-11-08 03:44:00,33.1,31.3,30.15,West,278,2.0,7.0,93,0.00,,OVC060,0.00,VWS V13.01,2013-11-08 08:44:00,
2013-11-08 03:49:00,33.0,31.2,30.15,WNW,293,3.0,6.0,93,0.00,,OVC060,0.00,VWS V13.01,2013-11-08 08:49:00,
2013-11-08 03:54:00,33.0,31.2,30.15,West,277,3.0,9.0,93,0.00,,OVC060,0.00,VWS V13.01,2013-11-08 08:54:00,
2013-11-08 03:59:00,32.9,31.1,30.15,WNW,292,3.0,7.0,93,0.00,,OVC060,0.00,VWS V13.01,2013-11-08 08:59:00,
2013-11-08 04:04:00,32.8,31.0,30.15,WNW,298,4.0,4.0,93,0.00,,BKN055,0.00,VWS V13.01,2013-11-08 09:04:00,
2013-11-08 04:09:00,32.8,31.0,30.16,WNW,299,4.0,8.0,93,0.00,,BKN055,0.00,VWS V13.01,2013-11-08 09:09:00,
2013-11-08 04:14:00,32.9,31.1,30.16,WNW,296,4.0,8.0,93,0.00,,BKN055,0.00,VWS V13.01,2013-11-08 09:14:00,
2013-11-08 04:19:00,33.0,31.2,30.16,West,267,3.0,7.0,93,0.00,,BKN055,0.00,VWS V13.01,2013-11-08 09:19:00,
2013-11-08 04:24:00,33.0,31.2,30.16,WNW,300,5.0,7.0,93,0.00,,BKN055,0.00,VWS V13.01,2013-11-08 09:24:00,
2013-11-08 04:29:00,32.9,31.1,30.16,WNW,291,6.0,8.0,93,0.00,,BKN055,0.00,VWS V13.01,2013-11-08 09:29:00,
2013-11-08 04:34:00,32.9,31.1,30.16,WNW,290,3.0,7.0,93,0.00,,BKN055,0.00,VWS V13.01,2013-11-08 09:34:00,
2013-11-08 04:39:00,33.0,31.2,30.16,West,277,3.0,7.0,93,0.00,,BKN055,0.00,VWS V13.01,2013-11-08 09:39:00,
2013-11-08 04:44:00,33.0,31.2,30.17,WNW,294,4.0,5.0,93,0.00,,BKN055,0.00,VWS V13.01,2013-11-08 09:44:00,
2013-11-08 04:49:00,33.0,31.2,30.17,West,279,6.0,6.0,93,0.00,,BKN055,0.00,VWS V13.01,2013-11-08 09:49:00,
2013-11-08 04:54:00,33.0,31.2,30.17,NW,309,2.0,6.0,93,0.00,,BKN055,0.00,VWS V13.01,2013-11-08 09:54:00,
2013-11-08 04:59:00,33.0,31.2,30.17,NNW,333,2.0,6.0,93,0.00,,BKN055,0.00,VWS V13.01,2013-11-08 09:59:00,
2013-11-08 05:04:00,33.0,31.2,30.17,West,281,3.0,7.0,93,0.00,,OVC055,0.00,VWS V13.01,2013-11-08 10:04:00,
2013-11-08 05:09:00,33.0,30.9,30.17,WNW,295,5.0,5.0,92,0.00,,OVC055,0.00,VWS V13.01,2013-11-08 10:09:00,
2013-11-08 05:14:00,32.9,30.8,30.17,WNW,292,1.0,5.0,92,0.00,,OVC055,0.00,VWS V13.01,2013-11-08 10:14:00,
2013-11-08 05:19:00,32.9,30.8,30.17,WNW,285,2.0,7.0,92,0.00,,OVC055,0.00,VWS V13.01,2013-11-08 10:19:00,
2013-11-08 05:24:00,32.9,30.8,30.18,WNW,285,2.0,5.0,92,0.00,,OVC055,0.00,VWS V13.01,2013-11-08 10:24:00,
2013-11-08 05:29:00,32.9,30.8,30.18,West,274,2.0,6.0,92,0.00,,OVC055,0.00,VWS V13.01,2013-11-08 10:29:00,
2013-11-08 05:34:00,33.0,30.9,30.18,WNW,288,2.0,5.0,92,0.00,,OVC055,0.00,VWS V13.01,2013-11-08 10:34:00,
2013-11-08 05:39:00,33.1,31.0,30.18,WNW,290,2.0,7.0,92,0.00,,OVC055,0.00,VWS V13.01,2013-11-08 10:39:00,
2013-11-08 05:44:00,33.2,31.1,30.18,WNW,290,6.0,8.0,92,0.00,,OVC055,0.00,VWS V13.01,2013-11-08 10:44:00,
2013-11-08 05:49:00,33.2,31.1,30.18,NW,311,3.0,5.0,92,0.00,,OVC055,0.00,VWS V13.01,2013-11-08 10:49:00,
2013-11-08 05:54:00,33.2,31.1,30.19,WNW,294,4.0,7.0,92,0.00,,OVC055,0.00,VWS V13.01,2013-11-08 10:54:00,
2013-11-08 05:59:00,33.2,31.1,30.19,WNW,293,4.0,5.0,92,0.00,,OVC055,0.00,VWS V13.01,2013-11-08 10:59:00,
2013-11-08 06:04:00,33.3,31.2,30.18,WSW,254,4.0,6.0,92,0.00,,OVC060,0.00,VWS V13.01,2013-11-08 11:04:00,
2013-11-08 06:09:00,33.3,31.0,30.19,WNW,290,4.0,7.0,91,0.00,,OVC060,0.00,VWS V13.01,2013-11-08 11:09:00,
2013-11-08 06:14:00,33.4,31.1,30.19,West,281,5.0,6.0,91,0.00,,OVC060,0.00,VWS V13.01,2013-11-08 11:14:00,
2013-11-08 06:19:00,33.4,31.1,30.19,West,260,8.0,8.0,91,0.00,,OVC060,0.00,VWS V13.01,2013-11-08 11:19:00,
2013-11-08 06:24:00,33.4,31.1,30.19,WNW,285,3.0,8.0,91,0.00,,OVC060,0.00,VWS V13.01,2013-11-08 11:24:00,
2013-11-08 06:29:00,33.5,31.2,30.19,WNW,290,2.0,6.0,91,0.00,,OVC060,0.00,VWS V13.01,2013-11-08 11:29:00,
2013-11-08 06:34:00,33.5,31.2,30.19,WNW,294,7.0,8.0,91,0.00,,OVC060,0.00,VWS V13.01,2013-11-08 11:34:00,
2013-11-08 06:39:00,33.5,31.2,30.19,WNW,287,3.0,8.0,91,0.00,,OVC060,0.00,VWS V13.01,2013-11-08 11:39:00,
2013-11-08 06:44:00,33.5,31.2,30.20,West,275,3.0,9.0,91,0.00,,OVC060,0.00,VWS V13.01,2013-11-08 11:44:00,
2013-11-08 06:49:00,33.5,31.2,30.20,WNW,285,2.0,6.0,91,0.00,,OVC060,0.00,VWS V13.01,2013-11-08 11:49:00,
2013-11-08 06:54:00,33.5,31.2,30.20,West,267,4.0,7.0,91,0.00,,OVC060,0.00,VWS V13.01,2013-11-08 11:54:00,
2013-11-08 06:59:00,33.6,31.3,30.20,West,274,4.0,7.0,91,0.00,,OVC060,0.00,VWS V13.01,2013-11-08 11:59:00,
2013-11-08 07:05:00,33.6,31.3,30.20,WSW,256,2.0,6.0,91,0.00,,OVC060,0.00,VWS V13.01,2013-11-08 12:05:00,
2013-11-08 07:10:00,33.6,31.3,30.20,WSW,257,4.0,7.0,91,0.00,,OVC060,0.00,VWS V13.01,2013-11-08 12:10:00,
2013-11-08 07:15:00,33.7,31.4,30.20,WNW,292,6.0,7.0,91,0.00,,OVC060,0.00,VWS V13.01,2013-11-08 12:15:00,
2013-11-08 07:20:00,33.7,31.4,30.21,WSW,242,3.0,7.0,91,0.00,,OVC060,0.00,VWS V13.01,2013-11-08 12:20:00,
2013-11-08 07:25:00,33.8,31.5,30.21,WNW,282,3.0,6.0,91,0.00,,OVC060,0.00,VWS V13.01,2013-11-08 12:25:00,
2013-11-08 07:30:00,33.8,31.5,30.21,WSW,254,4.0,7.0,91,0.00,,OVC060,0.00,VWS V13.01,2013-11-08 12:30:00,
2013-11-08 07:35:00,33.8,31.5,30.21,WNW,294,3.0,7.0,91,0.00,,OVC060,0.00,VWS V13.01,2013-11-08 12:35:00,
2013-11-08 07:40:00,33.8,31.5,30.21,West,276,8.0,8.0,91,0.00,,OVC060,0.00,VWS V13.01,2013-11-08 12:40:00,
2013-11-08 07:45:00,33.9,31.6,30.22,West,278,2.0,8.0,91,0.00,,OVC060,0.00,VWS V13.01,2013-11-08 12:45:00,
2013-11-08 07:50:00,33.9,31.3,30.22,WNW,300,2.0,7.0,90,0.00,,OVC060,0.00,VWS V13.01,2013-11-08 12:50:00,
2013-11-08 07:55:00,34.0,31.4,30.22,West,273,5.0,5.0,90,0.00,,OVC060,0.00,VWS V13.01,2013-11-08 12:55:00,
2013-11-08 08:00:00,34.1,31.5,30.22,WSW,254,3.0,7.0,90,0.00,,OVC060,0.00,VWS V13.01,2013-11-08 13:00:00,
2013-11-08 08:05:00,34.2,31.6,30.22,West,273,5.0,6.0,90,0.00,,OVC060,0.00,VWS V13.01,2013-11-08 13:05:00,
2013-11-08 08:10:00,34.1,31.5,30.23,West,259,2.0,7.0,90,0.00,,OVC060,0.00,VWS V13.01,2013-11-08 13:10:00,
2013-11-08 08:15:00,34.1,31.5,30.23,WNW,292,3.0,7.0,90,0.00,,OVC060,0.00,VWS V13.01,2013-11-08 13:15:00,
2013-11-08 08:20:00,34.2,31.6,30.23,West,263,4.0,6.0,90,0.00,,OVC060,0.00,VWS V13.01,2013-11-08 13:20:00,
2013-11-08 08:25:00,34.2,31.6,30.23,WSW,246,3.0,6.0,90,0.00,,OVC060,0.00,VWS V13.01,2013-11-08 13:25:00,
2013-11-08 08:30:00,34.3,31.7,30.24,WSW,258,5.0,7.0,90,0.00,,OVC060,0.00,VWS V13.01,2013-11-08 13:30:00,
2013-11-08 08:35:00,34.3,31.7,30.24,West,264,3.0,7.0,90,0.00,,OVC060,0.00,VWS V13.01,2013-11-08 13:35:00,
2013-11-08 08:40:00,34.5,31.9,30.24,WSW,242,3.0,7.0,90,0.00,,OVC060,0.00,VWS V13.01,2013-11-08 13:40:00,
2013-11-08 08:45:00,34.6,32.0,30.24,WNW,298,4.0,8.0,90,0.00,,OVC060,0.00,VWS V13.01,2013-11-08 13:45:00,
2013-11-08 08:50:00,34.8,31.9,30.25,West,266,4.0,9.0,89,0.00,,OVC060,0.00,VWS V13.01,2013-11-08 13:50:00,
2013-11-08 08:55:00,34.8,31.9,30.25,WSW,257,3.0,7.0,89,0.00,,OVC060,0.00,VWS V13.01,2013-11-08 13:55:00,
2013-11-08 09:00:00,34.9,32.0,30.25,NW,313,5.0,9.0,89,0.00,,OVC060,0.00,VWS V13.01,2013-11-08 14:00:00,
2013-11-08 09:05:00,35.1,32.2,30.25,WSW,250,3.0,5.0,89,0.00,,OVC060,0.00,VWS V13.01,2013-11-08 14:05:00,
2013-11-08 09:10:00,35.3,32.4,30.24,West,266,3.0,6.0,89,0.00,,OVC060,0.00,VWS V13.01,2013-11-08 14:10:00,
2013-11-08 09:15:00,35.3,32.4,30.24,WSW,252,5.0,6.0,89,0.00,,OVC060,0.00,VWS V13.01,2013-11-08 14:15:00,
2013-11-08 09:20:00,35.5,32.6,30.24,WSW,245,2.0,6.0,89,0.00,,OVC060,0.00,VWS V13.01,2013-11-08 14:20:00,
2013-11-08 09:25:00,35.7,32.8,30.24,WNW,297,4.0,7.0,89,0.00,,OVC060,0.00,VWS V13.01,2013-11-08 14:25:00,
2013-11-08 09:30:00,35.8,32.6,30.24,WSW,258,4.0,7.0,88,0.00,,OVC060,0.00,VWS V13.01,2013-11-08 14:30:00,
2013-11-08 09:35:00,36.2,33.0,30.24,West,266,5.0,7.0,88,0.00,,OVC060,0.00,VWS V13.01,2013-11-08 14:35:00,
2013-11-08 09:40:00,36.4,32.9,30.25,West,271,3.0,8.0,87,0.00,,OVC060,0.00,VWS V13.01,2013-11-08 14:40:00,
2013-11-08 09:45:00,36.4,32.9,30.25,West,269,5.0,10.0,87,0.00,,OVC060,0.00,VWS V13.01,2013-11-08 14:45:00,
2013-11-08 09:50:00,36.7,33.2,30.25,WNW,300,3.0,8.0,87,0.00,,OVC060,0.00,VWS V13.01,2013-11-08 14:50:00,
2013-11-08 09:55:00,37.1,33.3,30.25,NW,306,3.0,6.0,86,0.00,,OVC060,0.00,VWS V13.01,2013-11-08 14:55:00,
2013-11-08 10:00:00,37.2,32.8,30.25,NW,309,9.0,10.0,84,0.00,,OVC060,0.00,VWS V13.01,2013-11-08 15:00:00,
2013-11-08 10:06:00,37.2,32.8,30.25,WNW,283,4.0,8.0,84,0.00,,OVC060,0.00,VWS V13.01,2013-11-08 15:06:00,
2013-11-08 10:10:00,37.3,32.9,30.25,WNW,288,4.0,8.0,84,0.00,,OVC060,0.00,VWS V13.01,2013-11-08 15:10:00,
2013-11-08 10:16:00,37.3,32.6,30.25,WNW,287,2.0,9.0,83,0.00,,OVC060,0.00,VWS V13.01,2013-11-08 15:16:00,
2013-11-08 10:21:00,37.5,32.5,30.25,West,261,1.0,9.0,82,0.00,,OVC060,0.00,VWS V13.01,2013-11-08 15:21:00,
2013-11-08 10:26:00,37.7,32.7,30.25,WNW,291,4.0,8.0,82,0.00,,OVC060,0.00,VWS V13.01,2013-11-08 15:26:00,
2013-11-08 10:31:00,38.0,32.7,30.25,NW,304,3.0,9.0,81,0.00,,OVC060,0.00,VWS V13.01,2013-11-08 15:31:00,
2013-11-08 10:36:00,38.2,32.3,30.25,West,277,5.0,10.0,79,0.00,,OVC060,0.00,VWS V13.01,2013-11-08 15:36:00,
2013-11-08 10:41:00,38.3,32.4,30.25,WSW,257,4.0,7.0,79,0.00,,OVC060,0.00,VWS V13.01,2013-11-08 15:41:00,
2013-11-08 10:46:00,38.5,32.2,30.26,West,271,3.0,7.0,78,0.00,,OVC060,0.00,VWS V13.01,2013-11-08 15:46:00,
2013-11-08 10:51:00,38.7,32.4,30.26,West,273,4.0,7.0,78,0.00,,OVC060,0.00,VWS V13.01,2013-11-08 15:51:00,
2013-11-08 10:56:00,38.7,32.1,30.26,WSW,257,3.0,7.0,77,0.00,,OVC060,0.00,VWS V13.01,2013-11-08 15:56:00,
2013-11-08 11:01:00,39.2,32.3,30.26,NW,307,6.0,10.0,76,0.00,,OVC070,0.00,VWS V13.01,2013-11-08 16:01:00,
2013-11-08 11:06:00,39.7,32.8,30.26,WNW,288,4.0,7.0,76,0.00,,OVC070,0.00,VWS V13.01,2013-11-08 16:06:00,
2013-11-08 11:11:00,39.4,32.8,30.26,WSW,250,8.0,12.0,77,0.00,,OVC070,0.00,VWS V13.01,2013-11-08 16:11:00,
2013-11-08 11:16:00,39.7,32.4,30.26,WNW,282,6.0,10.0,75,0.00,,OVC070,0.00,VWS V13.01,2013-11-08 16:16:00,
2013-11-08 11:21:00,39.8,31.5,30.26,WSW,251,6.0,13.0,72,0.00,,OVC070,0.00,VWS V13.01,2013-11-08 16:21:00,
2013-11-08 11:26:00,39.7,31.1,30.26,West,269,5.0,10.0,71,0.00,,OVC070,0.00,VWS V13.01,2013-11-08 16:26:00,
2013-11-08 11:31:00,40.0,32.4,30.26,NW,306,4.0,5.0,74,0.00,,OVC070,0.00,VWS V13.01,2013-11-08 16:31:00,
2013-11-08 11:36:00,40.2,31.6,30.26,WNW,296,5.0,9.0,71,0.00,,OVC070,0.00,VWS V13.01,2013-11-08 16:36:00,
2013-11-08 11:41:00,39.9,32.3,30.26,WSW,252,5.0,11.0,74,0.00,,OVC070,0.00,VWS V13.01,2013-11-08 16:41:00,
2013-11-08 11:46:00,39.8,32.5,30.26,WSW,243,12.0,12.0,75,0.00,,OVC070,0.00,VWS V13.01,2013-11-08 16:46:00,
2013-11-08 11:51:00,39.8,31.5,30.26,WNW,285,2.0,11.0,72,0.00,,OVC070,0.00,VWS V13.01,2013-11-08 16:51:00,
2013-11-08 11:56:00,39.9,32.0,30.26,NW,316,8.0,10.0,73,0.00,,OVC070,0.00,VWS V13.01,2013-11-08 16:56:00,
2013-11-08 12:01:00,39.8,31.2,30.26,West,279,4.0,13.0,71,0.00,,OVC065,0.00,VWS V13.01,2013-11-08 17:01:00,
2013-11-08 12:06:00,39.8,31.5,30.26,WNW,296,4.0,10.0,72,0.00,,OVC065,0.00,VWS V13.01,2013-11-08 17:06:00,
2013-11-08 12:11:00,39.7,30.7,30.26,WSW,256,5.0,11.0,70,0.00,,OVC065,0.00,VWS V13.01,2013-11-08 17:11:00,
2013-11-08 12:16:00,39.8,31.2,30.25,WNW,292,7.0,8.0,71,0.00,,OVC065,0.00,VWS V13.01,2013-11-08 17:16:00,
2013-11-08 12:21:00,39.9,31.3,30.25,West,265,3.0,8.0,71,0.00,,OVC065,0.00,VWS V13.01,2013-11-08 17:21:00,
2013-11-08 12:26:00,40.0,31.4,30.25,NW,304,5.0,9.0,71,0.00,,OVC065,0.00,VWS V13.01,2013-11-08 17:26:00,
2013-11-08 12:31:00,40.2,31.2,30.25,NW,321,2.0,11.0,70,0.00,,OVC065,0.00,VWS V13.01,2013-11-08 17:31:00,
2013-11-08 12:36:00,40.8,32.5,30.24,WNW,302,3.0,5.0,72,0.00,,OVC065,0.00,VWS V13.01,2013-11-08 17:36:00,
2013-11-08 12:41:00,41.6,32.9,30.24,West,270,7.0,8.0,71,0.00,,OVC065,0.00,VWS V13.01,2013-11-08 17:41:00,
2013-11-08 12:46:00,42.1,32.3,30.24,WNW,289,2.0,9.0,68,0.00,,OVC065,0.00,VWS V13.01,2013-11-08 17:46:00,
2013-11-08 12:51:00,42.3,32.5,30.23,NW,318,3.0,6.0,68,0.00,,OVC065,0.00,VWS V13.01,2013-11-08 17:51:00,
2013-11-08 12:56:00,42.4,31.5,30.23,WSW,244,4.0,9.0,65,0.00,,OVC065,0.00,VWS V13.01,2013-11-08 17:56:00,
2013-11-08 13:01:00,42.5,31.6,30.23,WSW,252,8.0,12.0,65,0.00,,OVC055,0.00,VWS V13.01,2013-11-08 18:01:00,
2013-11-08 13:06:00,41.8,32.0,30.23,WSW,252,8.0,13.0,68,0.00,,OVC055,0.00,VWS V13.01,2013-11-08 18:06:00,
2013-11-08 13:11:00,41.6,31.5,30.23,WSW,244,7.0,17.0,67,0.00,,OVC055,0.00,VWS V13.01,2013-11-08 18:11:00,
2013-11-08 13:17:00,41.7,30.0,30.23,WNW,283,6.0,12.0,63,0.00,,OVC055,0.00,VWS V13.01,2013-11-08 18:17:00,
2013-11-08 13:22:00,42.2,30.5,30.23,West,270,2.0,7.0,63,0.00,,OVC055,0.00,VWS V13.01,2013-11-08 18:22:00,
2013-11-08 13:27:00,42.6,30.5,30.23,SW,235,6.0,8.0,62,0.00,,OVC055,0.00,VWS V13.01,2013-11-08 18:27:00,
2013-11-08 13:32:00,42.2,28.9,30.23,WSW,240,4.0,12.0,59,0.00,,OVC055,0.00,VWS V13.01,2013-11-08 18:32:00,
2013-11-08 13:37:00,41.8,29.0,30.23,SW,234,8.0,11.0,60,0.00,,OVC055,0.00,VWS V13.01,2013-11-08 18:37:00,
2013-11-08 13:42:00,41.6,26.6,30.23,West,267,6.0,16.0,55,0.00,,OVC055,0.00,VWS V13.01,2013-11-08 18:42:00,
2013-11-08 13:47:00,41.5,27.8,30.23,WSW,248,9.0,14.0,58,0.00,,OVC055,0.00,VWS V13.01,2013-11-08 18:47:00,
2013-11-08 13:52:00,41.4,26.5,30.23,WNW,284,6.0,13.0,55,0.00,,OVC055,0.00,VWS V13.01,2013-11-08 18:52:00,
2013-11-08 13:57:00,41.4,27.3,30.23,WSW,241,4.0,11.0,57,0.00,,OVC055,0.00,VWS V13.01,2013-11-08 18:57:00,
2013-11-08 14:02:00,41.4,26.5,30.23,NNW,336,5.0,11.0,55,0.00,,OVC043,0.00,VWS V13.01,2013-11-08 19:02:00,
2013-11-08 14:07:00,41.5,26.1,30.23,WNW,300,8.0,11.0,54,0.00,,OVC043,0.00,VWS V13.01,2013-11-08 19:07:00,
2013-11-08 14:12:00,41.6,26.2,30.23,WNW,295,6.0,14.0,54,0.00,,OVC043,0.00,VWS V13.01,2013-11-08 19:12:00,
2013-11-08 14:17:00,42.0,26.6,30.23,NW,317,4.0,11.0,54,0.00,,OVC043,0.00,VWS V13.01,2013-11-08 19:17:00,
2013-11-08 14:22:00,42.3,26.9,30.23,NW,308,5.0,9.0,54,0.00,,OVC043,0.00,VWS V13.01,2013-11-08 19:22:00,
2013-11-08 14:27:00,42.4,28.3,30.23,West,265,4.0,8.0,57,0.00,,OVC043,0.00,VWS V13.01,2013-11-08 19:27:00,
2013-11-08 14:32:00,42.1,28.0,30.23,WSW,246,11.0,13.0,57,0.00,,OVC043,0.00,VWS V13.01,2013-11-08 19:32:00,
2013-11-08 14:37:00,41.8,28.5,30.23,WSW,256,11.0,16.0,59,0.00,,OVC043,0.00,VWS V13.01,2013-11-08 19:37:00,
2013-11-08 14:42:00,42.1,26.7,30.23,NW,306,5.0,15.0,54,0.00,,OVC043,0.00,VWS V13.01,2013-11-08 19:42:00,
2013-11-08 14:47:00,42.2,27.6,30.23,West,261,4.0,14.0,56,0.00,,OVC043,0.00,VWS V13.01,2013-11-08 19:47:00,
2013-11-08 14:52:00,42.1,27.1,30.22,WSW,248,3.0,9.0,55,0.00,,OVC043,0.00,VWS V13.01,2013-11-08 19:52:00,
2013-11-08 14:57:00,42.1,28.4,30.23,NW,306,3.0,8.0,58,0.00,,OVC043,0.00,VWS V13.01,2013-11-08 19:57:00,
2013-11-08 15:02:00,41.9,26.5,30.23,NW,304,4.0,11.0,54,0.00,,OVC060,0.00,VWS V13.01,2013-11-08 20:02:00,
2013-11-08 15:07:00,41.7,26.7,30.23,West,281,2.0,10.0,55,0.00,,OVC060,0.00,VWS V13.01,2013-11-08 20:07:00,
2013-11-08 15:12:00,41.5,27.0,30.22,NW,326,5.0,9.0,56,0.00,,OVC060,0.00,VWS V13.01,2013-11-08 20:12:00,
2013-11-08 15:17:00,41.5,27.0,30.22,WNW,292,5.0,7.0,56,0.00,,OVC060,0.00,VWS V13.01,2013-11-08 20:17:00,
2013-11-08 15:22:00,41.5,27.0,30.22,NW,308,2.0,10.0,56,0.00,,OVC060,0.00,VWS V13.01,2013-11-08 20:22:00,
2013-11-08 15:27:00,41.6,27.1,30.22,WNW,284,4.0,7.0,56,0.00,,OVC060,0.00,VWS V13.01,2013-11-08 20:27:00,
2013-11-08 15:32:00,41.6,26.6,30.22,West,275,5.0,11.0,55,0.00,,OVC060,0.00,VWS V13.01,2013-11-08 20:32:00,
2013-11-08 15:37:00,41.6,26.6,30.22,NW,321,3.0,9.0,55,0.00,,OVC060,0.00,VWS V13.01,2013-11-08 20:37:00,
2013-11-08 15:42:00,41.6,26.6,30.22,NW,317,2.0,9.0,55,0.00,,OVC060,0.00,VWS V13.01,2013-11-08 20:42:00,
2013-11-08 15:47:00,41.5,27.4,30.22,WNW,288,8.0,8.0,57,0.00,,OVC060,0.00,VWS V13.01,2013-11-08 20:47:00,
2013-11-08 15:52:00,41.5,26.5,30.23,WNW,290,2.0,9.0,55,0.00,,OVC060,0.00,VWS V13.01,2013-11-08 20:52:00,
2013-11-08 15:57:00,41.5,27.8,30.23,WSW,248,7.0,8.0,58,0.00,,OVC060,0.00,VWS V13.01,2013-11-08 20:57:00,
2013-11-08 16:02:00,41.4,27.8,30.23,West,274,2.0,8.0,58,0.00,,OVC055,0.00,VWS V13.01,2013-11-08 21:02:00,
2013-11-08 16:07:00,41.4,27.8,30.23,NW,321,4.0,5.0,58,0.00,,OVC055,0.00,VWS V13.01,2013-11-08 21:07:00,
2013-11-08 16:12:00,41.3,27.2,30.23,WNW,291,2.0,6.0,57,0.00,,OVC055,0.00,VWS V13.01,2013-11-08 21:12:00,
2013-11-08 16:17:00,41.3,27.6,30.23,WNW,288,2.0,5.0,58,0.00,,OVC055,0.00,VWS V13.01,2013-11-08 21:17:00,
2013-11-08 16:22:00,41.2,27.1,30.23,West,267,3.0,5.0,57,0.00,,OVC055,0.00,VWS V13.01,2013-11-08 21:22:00,
2013-11-08 16:27:00,41.1,27.5,30.23,West,259,2.0,6.0,58,0.00,,OVC055,0.00,VWS V13.01,2013-11-08 21:27:00,
2013-11-08 16:32:00,41.0,27.4,30.23,WNW,296,3.0,7.0,58,0.00,,OVC055,0.00,VWS V13.01,2013-11-08 21:32:00,
2013-11-08 16:37:00,40.9,27.7,30.23,WNW,293,5.0,5.0,59,0.00,,OVC055,0.00,VWS V13.01,2013-11-08 21:37:00,
2013-11-08 16:42:00,40.8,27.2,30.23,West,280,1.0,5.0,58,0.00,,OVC055,0.00,VWS V13.01,2013-11-08 21:42:00,
2013-11-08 16:47:00,40.8,28.4,30.23,West,279,0.0,2.0,61,0.00,,OVC055,0.00,VWS V13.01,2013-11-08 21:47:00,
2013-11-08 16:52:00,40.7,27.9,30.23,West,279,0.0,2.0,60,0.00,,OVC055,0.00,VWS V13.01,2013-11-08 21:52:00,
2013-11-08 16:57:00,40.6,28.2,30.22,West,279,0.0,1.0,61,0.00,,OVC055,0.00,VWS V13.01,2013-11-08 21:57:00,
2013-11-08 17:02:00,40.5,28.5,30.22,West,279,0.0,0.0,62,0.00,,OVC047,0.00,VWS V13.01,2013-11-08 22:02:00,
2013-11-08 17:08:00,40.4,28.4,30.22,West,279,0.0,0.0,62,0.00,,OVC047,0.00,VWS V13.01,2013-11-08 22:08:00,
2013-11-08 17:13:00,40.2,28.6,30.22,West,279,0.0,0.0,63,0.00,,OVC047,0.00,VWS V13.01,2013-11-08 22:13:00,
2013-11-08 17:18:00,40.1,28.9,30.22,West,279,0.0,0.0,64,0.00,,OVC047,0.00,VWS V13.01,2013-11-08 22:18:00,
2013-11-08 17:23:00,39.9,28.7,30.22,West,279,0.0,0.0,64,0.00,,OVC047,0.00,VWS V13.01,2013-11-08 22:23:00,
2013-11-08 17:28:00,39.7,29.3,30.22,West,279,0.0,0.0,66,0.00,,OVC047,0.00,VWS V13.01,2013-11-08 22:28:00,
2013-11-08 17:33:00,39.4,29.7,30.22,West,279,0.0,0.0,68,0.00,,OVC047,0.00,VWS V13.01,2013-11-08 22:33:00,
2013-11-08 17:38:00,39.1,29.8,30.22,West,279,0.0,0.0,69,0.00,,OVC047,0.00,VWS V13.01,2013-11-08 22:38:00,
2013-11-08 17:43:00,38.8,29.5,30.22,West,279,0.0,0.0,69,0.00,,OVC047,0.00,VWS V13.01,2013-11-08 22:43:00,
2013-11-08 17:48:00,38.4,29.8,30.22,West,279,0.0,2.0,71,0.00,,OVC047,0.00,VWS V13.01,2013-11-08 22:48:00,
2013-11-08 17:53:00,38.1,29.5,30.22,West,279,0.0,1.0,71,0.00,,OVC047,0.00,VWS V13.01,2013-11-08 22:53:00,
2013-11-08 17:58:00,37.7,29.5,30.22,West,279,0.0,1.0,72,0.00,,OVC047,0.00,VWS V13.01,2013-11-08 22:58:00,
2013-11-08 18:03:00,37.3,29.1,30.22,West,279,0.0,1.0,72,0.00,,OVC055,0.00,VWS V13.01,2013-11-08 23:03:00,
2013-11-08 18:08:00,37.2,29.0,30.22,West,279,0.0,1.0,72,0.00,,OVC055,0.00,VWS V13.01,2013-11-08 23:08:00,
2013-11-08 18:13:00,37.0,28.8,30.22,West,279,0.0,1.0,72,0.00,,OVC055,0.00,VWS V13.01,2013-11-08 23:13:00,
2013-11-08 18:18:00,36.9,28.7,30.22,West,279,0.0,0.0,72,0.00,,OVC055,0.00,VWS V13.01,2013-11-08 23:18:00,
2013-11-08 18:23:00,36.7,28.5,30.22,West,279,0.0,1.0,72,0.00,,OVC055,0.00,VWS V13.01,2013-11-08 23:23:00,
2013-11-08 18:28:00,36.4,28.6,30.22,West,279,0.0,1.0,73,0.00,,OVC055,0.00,VWS V13.01,2013-11-08 23:28:00,
2013-11-08 18:33:00,36.1,28.3,30.23,West,279,0.0,0.0,73,0.00,,OVC055,0.00,VWS V13.01,2013-11-08 23:33:00,
2013-11-08 18:38:00,35.8,28.7,30.23,West,279,1.0,1.0,75,0.00,,OVC055,0.00,VWS V13.01,2013-11-08 23:38:00,
2013-11-08 18:43:00,35.3,28.2,30.23,West,279,1.0,1.0,75,0.00,,OVC055,0.00,VWS V13.01,2013-11-08 23:43:00,
2013-11-08 18:48:00,35.2,28.4,30.22,West,279,0.0,1.0,76,0.00,,OVC055,0.00,VWS V13.01,2013-11-08 23:48:00,
2013-11-08 18:53:00,35.2,28.4,30.22,West,279,0.0,1.0,76,0.00,,OVC055,0.00,VWS V13.01,2013-11-08 23:53:00,
2013-11-08 18:58:00,35.5,28.7,30.22,West,279,0.0,1.0,76,0.00,,OVC055,0.00,VWS V13.01,2013-11-08 23:58:00,
2013-11-08 19:03:00,35.9,29.1,30.22,WSW,254,0.0,1.0,76,0.00,,BKN055,0.00,VWS V13.01,2013-11-09 00:03:00,
2013-11-08 19:08:00,36.1,29.0,30.22,WSW,254,1.0,1.0,75,0.00,,BKN055,0.00,VWS V13.01,2013-11-09 00:08:00,
2013-11-08 19:13:00,36.4,29.2,30.22,SW,223,1.0,3.0,75,0.00,,BKN055,0.00,VWS V13.01,2013-11-09 00:13:00,
2013-11-08 19:18:00,36.7,29.5,30.22,SW,224,2.0,3.0,75,0.00,,BKN055,0.00,VWS V13.01,2013-11-09 00:18:00,
2013-11-08 19:23:00,36.8,29.6,30.22,SW,224,2.0,2.0,75,0.00,,BKN055,0.00,VWS V13.01,2013-11-09 00:23:00,
2013-11-08 19:28:00,36.8,29.6,30.22,SW,224,1.0,2.0,75,0.00,,BKN055,0.00,VWS V13.01,2013-11-09 00:28:00,
2013-11-08 19:33:00,37.1,29.9,30.22,SW,234,0.0,4.0,75,0.00,,BKN055,0.00,VWS V13.01,2013-11-09 00:33:00,
2013-11-08 19:38:00,37.3,30.1,30.22,SW,234,0.0,3.0,75,0.00,,BKN055,0.00,VWS V13.01,2013-11-09 00:38:00,
2013-11-08 19:43:00,37.5,30.3,30.22,SW,235,0.0,3.0,75,0.00,,BKN055,0.00,VWS V13.01,2013-11-09 00:43:00,
2013-11-08 19:48:00,37.7,30.5,30.22,SW,235,1.0,3.0,75,0.00,,BKN055,0.00,VWS V13.01,2013-11-09 00:48:00,
2013-11-08 19:53:00,37.7,30.2,30.22,SW,235,1.0,2.0,74,0.00,,BKN055,0.00,VWS V13.01,2013-11-09 00:53:00,
2013-11-08 19:58:00,37.7,30.2,30.21,SW,235,0.0,1.0,74,0.00,,BKN055,0.00,VWS V13.01,2013-11-09 00:58:00,
2013-11-08 20:03:00,37.8,30.6,30.21,SW,235,0.0,2.0,75,0.00,,FEW050,0.00,VWS V13.01,2013-11-09 01:03:00,
2013-11-08 20:08:00,37.7,30.5,30.21,SW,235,2.0,2.0,75,0.00,,FEW050,0.00,VWS V13.01,2013-11-09 01:08:00,
2013-11-08 20:13:00,37.6,30.7,30.21,SW,236,0.0,4.0,76,0.00,,FEW050,0.00,VWS V13.01,2013-11-09 01:13:00,
2013-11-08 20:18:00,37.6,30.7,30.21,SW,236,1.0,3.0,76,0.00,,FEW050,0.00,VWS V13.01,2013-11-09 01:18:00,
2013-11-08 20:23:00,37.7,30.8,30.21,WSW,252,2.0,4.0,76,0.00,,FEW050,0.00,VWS V13.01,2013-11-09 01:23:00,
2013-11-08 20:28:00,37.7,30.8,30.20,WSW,251,2.0,3.0,76,0.00,,FEW050,0.00,VWS V13.01,2013-11-09 01:28:00,
2013-11-08 20:33:00,37.8,31.2,30.20,WSW,252,1.0,3.0,77,0.00,,FEW050,0.00,VWS V13.01,2013-11-09 01:33:00,
2013-11-08 20:38:00,37.8,30.9,30.20,WSW,253,1.0,4.0,76,0.00,,FEW050,0.00,VWS V13.01,2013-11-09 01:38:00,
2013-11-08 20:43:00,37.7,31.1,30.20,WSW,257,2.0,5.0,77,0.00,,FEW050,0.00,VWS V13.01,2013-11-09 01:43:00,
2013-11-08 20:48:00,37.6,31.1,30.20,WSW,257,2.0,4.0,77,0.00,,FEW050,0.00,VWS V13.01,2013-11-09 01:48:00,
2013-11-08 20:53:00,37.6,31.1,30.20,WSW,257,2.0,4.0,77,0.00,,FEW050,0.00,VWS V13.01,2013-11-09 01:53:00,
2013-11-08 20:58:00,37.5,31.3,30.20,WSW,257,1.0,4.0,78,0.00,,FEW050,0.00,VWS V13.01,2013-11-09 01:58:00,
2013-11-08 21:03:00,37.6,31.4,30.20,WSW,257,2.0,3.0,78,0.00,,CLR,0.00,VWS V13.01,2013-11-09 02:03:00,
2013-11-08 21:08:00,37.5,31.3,30.20,WSW,257,1.0,3.0,78,0.00,,CLR,0.00,VWS V13.01,2013-11-09 02:08:00,
2013-11-08 21:13:00,37.5,31.3,30.20,WSW,257,1.0,3.0,78,0.00,,CLR,0.00,VWS V13.01,2013-11-09 02:13:00,
2013-11-08 21:18:00,37.4,31.2,30.20,WSW,257,3.0,6.0,78,0.00,,CLR,0.00,VWS V13.01,2013-11-09 02:18:00,
2013-11-08 21:23:00,37.7,31.1,30.21,West,259,2.0,4.0,77,0.00,,CLR,0.00,VWS V13.01,2013-11-09 02:23:00,
2013-11-08 21:28:00,37.6,30.7,30.21,West,260,1.0,3.0,76,0.00,,CLR,0.00,VWS V13.01,2013-11-09 02:28:00,
2013-11-08 21:33:00,37.3,30.4,30.21,West,260,2.0,3.0,76,0.00,,CLR,0.00,VWS V13.01,2013-11-09 02:33:00,
2013-11-08 21:38:00,37.1,30.2,30.21,West,260,2.0,4.0,76,0.00,,CLR,0.00,VWS V13.01,2013-11-09 02:38:00,
2013-11-08 21:43:00,37.1,30.6,30.20,West,262,3.0,4.0,77,0.00,,CLR,0.00,VWS V13.01,2013-11-09 02:43:00,
2013-11-08 21:49:00,37.4,30.9,30.20,West,266,3.0,6.0,77,0.00,,CLR,0.00,VWS V13.01,2013-11-09 02:49:00,
2013-11-08 21:54:00,37.5,31.3,30.20,West,266,1.0,3.0,78,0.00,,CLR,0.00,VWS V13.01,2013-11-09 02:54:00,
2013-11-08 21:59:00,39.3,34.0,30.20,SW,216,8.0,8.0,81,0.00,,CLR,0.00,VWS V13.01,2013-11-09 02:59:00,
2013-11-08 22:04:00,41.1,34.5,30.20,SSW,211,7.0,10.0,77,0.00,,CLR,0.00,VWS V13.01,2013-11-09 03:04:00,
2013-11-08 22:09:00,41.6,34.3,30.20,SSW,212,8.0,10.0,75,0.00,,CLR,0.00,VWS V13.01,2013-11-09 03:09:00,
2013-11-08 22:14:00,41.6,33.9,30.20,SW,224,10.0,12.0,74,0.00,,CLR,0.00,VWS V13.01,2013-11-09 03:14:00,
2013-11-08 22:19:00,41.6,34.3,30.20,SW,227,9.0,11.0,75,0.00,,CLR,0.00,VWS V13.01,2013-11-09 03:19:00,
2013-11-08 22:24:00,41.4,34.1,30.20,SW,223,10.0,12.0,75,0.00,,CLR,0.00,VWS V13.01,2013-11-09 03:24:00,
2013-11-08 22:29:00,41.2,33.9,30.20,SW,230,10.0,13.0,75,0.00,,CLR,0.00,VWS V13.01,2013-11-09 03:29:00,
2013-11-08 22:34:00,41.0,33.4,30.20,SW,227,11.0,14.0,74,0.00,,CLR,0.00,VWS V13.01,2013-11-09 03:34:00,
2013-11-08 22:39:00,40.9,33.6,30.20,SW,227,10.0,12.0,75,0.00,,CLR,0.00,VWS V13.01,2013-11-09 03:39:00,
2013-11-08 22:44:00,40.7,33.4,30.20,SW,234,9.0,11.0,75,0.00,,CLR,0.00,VWS V13.01,2013-11-09 03:44:00,
2013-11-08 22:49:00,40.6,33.3,30.20,WSW,238,8.0,11.0,75,0.00,,CLR,0.00,VWS V13.01,2013-11-09 03:49:00,
2013-11-08 22:54:00,40.5,33.5,30.20,WSW,244,10.0,11.0,76,0.00,,CLR,0.00,VWS V13.01,2013-11-09 03:54:00,
2013-11-08 22:59:00,40.3,32.7,30.20,SW,235,10.0,11.0,74,0.00,,CLR,0.00,VWS V13.01,2013-11-09 03:59:00,
2013-11-08 23:04:00,40.1,32.5,30.20,SW,231,7.0,10.0,74,0.00,,OVC110,0.00,VWS V13.01,2013-11-09 04:04:00,
2013-11-08 23:09:00,40.1,32.5,30.19,SW,236,6.0,9.0,74,0.00,,OVC110,0.00,VWS V13.01,2013-11-09 04:09:00,
2013-11-08 23:14:00,40.0,32.4,30.19,SW,236,5.0,6.0,74,0.00,,OVC110,0.00,VWS V13.01,2013-11-09 04:14:00,
2013-11-08 23:19:00,40.0,32.4,30.19,WSW,242,5.0,6.0,74,0.00,,OVC110,0.00,VWS V13.01,2013-11-09 04:19:00,
2013-11-08 23:24:00,40.0,32.7,30.19,SW,218,6.0,7.0,75,0.00,,OVC110,0.00,VWS V13.01,2013-11-09 04:24:00,
2013-11-08 23:29:00,40.0,32.4,30.19,SW,222,5.0,7.0,74,0.00,,OVC110,0.00,VWS V13.01,2013-11-09 04:29:00,
2013-11-08 23:34:00,40.0,32.7,30.18,SW,228,5.0,7.0,75,0.00,,OVC110,0.00,VWS V13.01,2013-11-09 04:34:00,
2013-11-08 23:39:00,40.1,33.5,30.18,SW,216,9.0,10.0,77,0.00,,OVC110,0.00,VWS V13.01,2013-11-09 04:39:00,
2013-11-08 23:44:00,40.2,33.6,30.18,SSW,207,7.0,10.0,77,0.00,,OVC110,0.00,VWS V13.01,2013-11-09 04:44:00,
2013-11-08 23:49:00,40.3,33.7,30.18,SSW,212,7.0,9.0,77,0.00,,OVC110,0.00,VWS V13.01,2013-11-09 04:49:00,
2013-11-08 23:54:00,40.5,34.2,30.18,SW,215,7.0,9.0,78,0.00,,OVC110,0.00,VWS V13.01,2013-11-09 04:54:00,
2013-11-08 23:59:00,40.6,34.3,30.17,SSW,206,7.0,9.0,78,0.00,,OVC110,0.00,VWS V13.01,2013-11-09 04:59:00,